#timestamp,LO_Frequency,Hit,StdDev 
1635138015.4,286046998.9,N
1635138035.2,286046999.3,N
1635138055.1,286046999.4,N
1635138056.0,286046999.4,N
1635138075.8,286046996.5,Y
1635138095.6,286046998.9,P
1635138115.5,286046998.4,P
1635138135.3,286046997.1,P
1635138155.2,286046998.9,N
1635138175.9,286046998.4,N
1635138195.7,286046998.7,N
1635138215.6,286047001.2,N
1635138235.4,286046998.8,N
1635138255.2,286046999.2,N
1635138275.1,286046998.2,N
1635138276.0,286046998.2,N
1635138295.8,286046998.1,N
1635138315.7,286046999.2,N
1635138335.5,286047001.1,N
1635138355.3,286046999.3,N
1635138375.2,286046998.3,N
1635138395.0,286047000.5,N
1635138395.9,286047000.5,N
1635138415.7,286047001.0,N
1635138435.6,286047000.7,N
1635138455.4,286047000.3,N
1635138475.3,286047001.2,N
1635138495.1,286046998.6,N
1635138496.0,286046998.6,N
1635138515.8,286047001.2,N
1635138535.7,286047000.0,N
1635138555.5,286046998.5,N
1635138575.3,286047001.0,N
1635138595.2,286046998.4,N
1635138615.0,286046999.3,N
1635138615.9,286046999.3,N
1635138635.8,286046996.9,N
1635138655.6,286046999.2,N
1635138675.4,286046996.7,N
1635138695.3,286046996.7,N
1635138715.1,286046996.8,N
1635138735.9,286046998.7,N
1635138755.7,286046997.1,N
1635138775.5,286046997.0,N
1635138795.4,286046999.2,N
1635138815.2,286046999.5,N
1635138835.0,286046996.6,N
1635138836.0,286046996.6,N
1635138855.8,286046997.1,N
1635138875.6,286046996.6,N
1635138895.5,286046999.5,N
1635138915.3,286046999.2,N
1635138935.1,286046999.1,N
1635138955.9,286046999.0,N
1635138975.2,286046998.9,N
1635138995.1,286046996.5,N
1635138996.0,286046996.5,N
1635139015.8,286046996.8,N
1635139035.6,286046996.8,N
1635139055.5,286046997.8,N
1635139075.3,286046996.8,N
1635139095.2,286046996.7,N
1635139115.9,286046999.1,N
1635139135.7,286046997.1,N
1635139155.6,286046999.6,N
1635139175.4,286046999.5,N
1635139195.2,286046996.6,N
1635139215.1,286046997.7,N
1635139216.0,286046997.7,N
1635139235.8,286046999.6,N
1635139255.7,286046999.1,N
1635139275.5,286046998.5,N
1635139295.3,286046998.9,N
1635139315.2,286046999.0,N
1635139335.0,286046997.0,N
1635139335.9,286046997.0,N
1635139355.8,286046999.6,N
1635139375.6,286046997.0,N
1635139395.4,286046999.3,N
1635139415.3,286047000.9,N
1635139435.1,286047000.7,N
1635139455.8,286047000.8,N
1635139475.7,286046998.2,N
1635139495.5,286046998.7,N
1635139515.4,286047000.6,N
1635139535.2,286046998.5,N
1635139555.0,286047001.2,N
1635139555.9,286047001.2,N
1635139575.8,286047000.1,N
1635139595.6,286047000.2,N
1635139615.4,286046999.7,N
1635139635.3,286046999.7,N
1635139655.1,286047000.3,N
1635139675.9,286047000.1,N
1635139695.7,286047000.7,N
1635139715.5,286047000.8,N
1635139735.4,286047002.7,N
1635139755.2,286046999.8,N
1635139775.1,286046999.7,N
1635139776.0,286046999.7,N
1635139795.8,286047000.0,N
1635139815.6,286047000.9,N
1635139835.5,286047000.8,N
1635139855.3,286047000.4,N
1635139875.1,286047000.6,N
1635139895.9,286046998.1,N
1635139915.7,286046998.9,N
1635139935.6,286046998.9,N
1635139955.4,286046999.3,N
1635139975.2,286046996.5,Y
1635139995.1,286046996.8,P
1635139996.0,286046996.8,N
1635140015.8,286046998.9,N
1635140035.7,286046996.5,N
1635140055.5,286046996.7,N
1635140075.3,286046997.3,N
1635140095.2,286046995.6,Y
1635140115.0,286046998.7,P
1635140115.9,286046998.7,N
1635140135.8,286046998.2,P
1635140155.8,286047001.0,N
1635140175.7,286047000.8,N
1635140195.5,286047000.3,N
1635140215.4,286047002.3,N
1635140235.2,286047000.1,N
1635140255.0,286047002.2,N
1635140255.9,286047002.2,N
1635140275.8,286047001.7,N
1635140295.6,286047001.8,N
1635140315.4,286047002.5,N
1635140335.3,286047001.8,N
1635140355.1,286047001.8,N
1635140375.9,286047004.1,N
1635140395.7,286047003.9,N
1635140415.5,286047003.6,N
1635140435.4,286047004.2,N
1635140455.2,286047004.0,N
1635140475.0,286047004.3,N
1635140476.0,286047004.3,N
1635140495.8,286047003.9,N
1635140515.6,286047004.4,N
1635140535.5,286047004.2,N
1635140555.3,286047002.6,N
1635140575.1,286047002.2,N
1635140595.9,286047001.8,N
1635140615.7,286047001.8,N
1635140635.6,286047001.9,N
1635140655.4,286047003.7,N
1635140675.2,286047003.9,N
1635140695.1,286047003.0,N
1635140696.0,286047003.0,N
1635140715.8,286047006.0,Y
1635140735.7,286047001.9,P
1635140755.5,286047004.0,P
1635140775.3,286047001.5,N
1635140795.2,286047002.1,N
1635140815.0,286047002.0,N
1635140815.9,286047002.0,N
1635140835.7,286047001.5,N
1635140855.6,286047002.2,N
1635140875.4,286047001.5,N
1635140895.3,286047002.3,Y
1635140915.1,286046999.4,P
1635140916.0,286046999.4,N
1635140935.8,286046998.4,N
1635140955.7,286046999.2,N
1635140975.5,286046999.5,N
1635140995.3,286046998.9,N
1635141015.2,286046999.3,N
1635141035.0,286046999.3,N
1635141035.9,286046999.3,N
1635141055.8,286046998.3,N
1635141075.6,286046998.4,N
1635141095.4,286046998.5,N
1635141115.3,286046998.1,N
1635141135.1,286047000.7,N
1635141155.9,286046998.3,N
1635141175.7,286046998.7,N
1635141195.5,286047000.7,N
1635141215.4,286046998.1,N
1635141235.2,286047000.9,N
1635141255.0,286047000.6,N
1635141255.9,286047000.6,N
1635141275.8,286046999.8,N
1635141295.6,286046998.5,N
1635141315.5,286046998.5,N
1635141335.3,286047001.1,N
1635141355.1,286047000.3,N
1635141375.9,286046999.9,N
1635141395.7,286047002.4,N
1635141415.5,286047002.6,N
1635141435.4,286047002.1,N
1635141455.2,286047002.2,N
1635141475.1,286047001.3,N
1635141476.0,286047001.3,N
1635141495.8,286047001.7,N
1635141515.6,286047002.0,N
1635141535.5,286047002.2,N
1635141555.3,286047001.9,N
1635141575.1,286047002.4,N
1635141595.9,286047001.0,N
